Tracking 27188 objects as of 2-Apr-2023
HD Live streaming from Space Station
objects crossing your sky now

STARLINK-3664

Track STARLINK-3664 now!
10-day predictions
STARLINK-3664 is classified as:


NORAD ID: 51984
Int'l Code: 2022-025AE
Perigee: 546.0 km
Apogee: 547.8 km
Inclination: 53.2 °
Period: 95.4 minutes
Semi major axis: 6917 km
RCS: Unknown
Launch date: March 9, 2022
Source: United States (US)
Launch site: AIR FORCE EASTERN TEST RANGE (AFETR)
Your satellite tracking list
Your tracking list is empty




NASA's NSSDC Master Catalog

Two Line Element Set (TLE):
1 51984U 22025AE  23091.75065514  .00041181  00000-0  25908-2 0  9997
2 51984  53.2140 175.7309 0001342  75.5543 284.5598 15.08835372 60183
Source of the keplerian elements: AFSPC